Weather History for Andrews, NC

Change the Weather History Date:

Thursday, November 14, 2013

  Actual Average (KTYS) Record (KTYS)
Temperature  
Mean Temperature 38 °F 50 °F  
Max Temperature 58 °F 61 °F 80 °F (1993)
Min Temperature 18 °F 39 °F 20 °F (1969)
Degree Days  
Heating Degree Days 28 15  
Month to date heating degree days 178  
Since 1 July heating degree days 397  
Cooling Degree Days 0 0  
Month to date cooling degree days 0  
Year to date cooling degree days 1523  
Moisture  
Dew Point 19 °F    
Average Humidity 64    
Maximum Humidity 95    
Minimum Humidity 15    
Precipitation  
Precipitation 0.00 in 0.13 in 2.75 in (1915)
Month to date precipitation 1.66  
Year to date precipitation 41.01  
Snow  
Snow 0.00 in 0.00 in - ()
Month to date snowfall 0.0  
Since 1 July snowfall 0.0  
Since 1 September snowfall 0.0  
Snow Depth -    
Sea Level Pressure  
Sea Level Pressure 30.38 in    
Wind  
Wind Speed 1 mph (West)    
Max Wind Speed 8 mph    
Max Gust Speed -    
Visibility 10 miles    
Events      
T = Trace of Precipitation, MM = Missing Value Source: NWS Daily Summary

Daily Weather History Graph

Daily Weather History Graph

Search for Another Location

Airport:

Trip Planner

Search our weather history database for the weather conditions in past years. The results will help you decide how hot, cold, wet, or windy it might be!

Date:

Astronomy

Nov. 14, 2013 Rise Set
Actual Time 7:09 AM EST 5:29 PM EST
Civil Twilight 6:42 AM EST 5:56 PM EST
Nautical Twilight 6:11 AM EST 6:27 PM EST
Astronomical Twilight 5:41 AM EST 6:57 PM EST
Moon 3:45 PM EST (11/14) 4:09 AM EST (11/14)
Length of Visible Light 11h 14m
Length of Day
10h 20m
Waxing Gibbous, 91% of the Moon is Illuminated
Nov 14
Waxing Gibbous
Nov 17
Full
Nov 25
Last Quarter
Dec 2
New
Dec 9
First Quarter

Hourly Weather History & Observations

Time (EST) Temp. Windchill Dew Point Humidity Pressure Visibility Wind Dir Wind Speed Gust Speed Precip Events Conditions
12:15 AM 23.0 °F - 19.4 °F 86% 30.45 in 10.0 mi Calm Calm - N/A   Clear
12:35 AM 23.2 °F - 19.6 °F 86% 30.45 in 10.0 mi Calm Calm - N/A   Clear
12:55 AM 22.5 °F - 18.7 °F 85% 30.45 in 10.0 mi Calm Calm - N/A   Clear
1:15 AM 21.4 °F - 18.3 °F 88% 30.44 in 10.0 mi Calm Calm - N/A   Clear
1:35 AM 21.0 °F - 18.3 °F 89% 30.44 in 10.0 mi Calm Calm - N/A   Clear
1:55 AM 22.3 °F - 19.0 °F 87% 30.45 in 10.0 mi Calm Calm - N/A   Clear
2:15 AM 19.8 °F - 17.8 °F 92% 30.45 in 10.0 mi Calm Calm - N/A   Clear
2:35 AM 20.5 °F - 18.1 °F 91% 30.45 in 10.0 mi Calm Calm - N/A   Clear
2:55 AM 21.0 °F 16.2 °F 18.3 °F 89% 30.44 in 10.0 mi ENE 3.5 mph - N/A   Clear
3:15 AM 20.8 °F - 19.0 °F 93% 30.44 in 10.0 mi Calm Calm - N/A   Clear
3:35 AM 22.1 °F - 19.0 °F 88% 30.44 in 10.0 mi Calm Calm - N/A   Clear
3:55 AM 19.8 °F - 17.6 °F 91% 30.44 in 10.0 mi Calm Calm - N/A   Clear
4:15 AM 20.3 °F - 18.5 °F 93% 30.44 in 10.0 mi Calm Calm - N/A   Clear
4:35 AM 19.8 °F - 17.8 °F 92% 30.44 in 10.0 mi Calm Calm - N/A   Clear
4:55 AM 18.9 °F - 16.7 °F 91% 30.44 in 10.0 mi Calm Calm - N/A   Clear
5:15 AM 20.8 °F - 18.5 °F 91% 30.45 in 10.0 mi Calm Calm - N/A   Clear
5:35 AM 19.9 °F - 17.8 °F 91% 30.45 in 10.0 mi Calm Calm - N/A   Clear
5:55 AM 18.3 °F - 17.1 °F 95% 30.46 in 10.0 mi Calm Calm - N/A   Clear
6:15 AM 19.0 °F - 17.6 °F 94% 30.45 in 10.0 mi Calm Calm - N/A   Clear
6:35 AM 18.5 °F - 16.9 °F 93% 30.45 in 10.0 mi Calm Calm - N/A   Clear
6:55 AM 19.0 °F - 17.4 °F 93% 30.45 in 10.0 mi Calm Calm - N/A   Clear
7:15 AM 19.4 °F - 17.6 °F 93% 30.45 in 10.0 mi Calm Calm - N/A   Clear
7:35 AM 18.1 °F - 15.8 °F 91% 30.45 in 10.0 mi Calm Calm - N/A   Clear
7:55 AM 19.8 °F - 18.0 °F 93% 30.46 in 10.0 mi Calm Calm - N/A   Clear
8:15 AM 22.1 °F - 19.0 °F 88% 30.47 in 10.0 mi Calm Calm - N/A   Clear
8:35 AM 23.7 °F - 20.3 °F 87% 30.47 in 10.0 mi Calm Calm - N/A   Clear
8:55 AM 25.5 °F - 20.5 °F 81% 30.47 in 10.0 mi Calm Calm - N/A   Clear
9:15 AM 28.4 °F - 21.4 °F 75% 30.47 in 10.0 mi Calm Calm - N/A   Clear
9:35 AM 30.6 °F - 21.0 °F 68% 30.47 in 10.0 mi Calm Calm - N/A   Clear
9:55 AM 34.0 °F - 21.9 °F 61% 30.46 in 10.0 mi Calm Calm - N/A   Clear
10:15 AM 36.3 °F - 22.3 °F 57% 30.45 in 10.0 mi Calm Calm - N/A   Clear
10:35 AM 39.7 °F 37.6 °F 20.8 °F 47% 30.45 in 10.0 mi West 3.5 mph - N/A   Clear
10:55 AM 43.0 °F 41.3 °F 18.5 °F 37% 30.45 in 10.0 mi SW 3.5 mph - N/A   Clear
11:15 AM 46.0 °F 44.8 °F 21.7 °F 38% 30.44 in 10.0 mi WSW 3.5 mph - N/A   Clear
11:35 AM 49.1 °F - 20.5 °F 32% 30.42 in 10.0 mi WSW 3.5 mph - N/A   Clear
11:55 AM 50.9 °F - 16.2 °F 25% 30.41 in 10.0 mi West 6.9 mph - N/A   Clear
12:15 PM 52.0 °F - 12.7 °F 21% 30.40 in 10.0 mi West 3.5 mph - N/A   Clear
12:35 PM 52.9 °F - 10.2 °F 18% 30.38 in 10.0 mi Calm Calm - N/A   Clear
12:55 PM 54.0 °F - 11.5 °F 18% 30.37 in 10.0 mi West 4.6 mph - N/A   Clear
1:15 PM 54.7 °F - 11.1 °F 18% 30.36 in 10.0 mi West 5.8 mph - N/A   Clear
1:35 PM 55.8 °F - 11.8 °F 18% 30.34 in 10.0 mi West 4.6 mph - N/A   Clear
1:55 PM 56.3 °F - 10.0 °F 16% 30.33 in 10.0 mi WSW 4.6 mph - N/A   Clear
2:15 PM 56.8 °F - 9.7 °F 15% 30.32 in 10.0 mi West 4.6 mph - N/A   Clear
2:35 PM 57.4 °F - 10.8 °F 16% 30.30 in 10.0 mi WSW 3.5 mph - N/A   Clear
2:55 PM 57.7 °F - 11.5 °F 16% 30.30 in 10.0 mi West 5.8 mph - N/A   Clear
3:15 PM 57.6 °F - 11.3 °F 16% 30.29 in 10.0 mi WSW 5.8 mph - N/A   Clear
3:35 PM 57.7 °F - 12.0 °F 16% 30.29 in 10.0 mi West 5.8 mph - N/A   Clear
3:55 PM 57.9 °F - 13.3 °F 17% 30.29 in 10.0 mi West 8.1 mph - N/A   Clear
4:15 PM 57.6 °F - 14.7 °F 19% 30.28 in 10.0 mi West 5.8 mph - N/A   Clear
4:35 PM 56.3 °F - 19.8 °F 24% 30.28 in 10.0 mi WSW 5.8 mph - N/A   Clear
4:55 PM 51.1 °F - 21.0 °F 31% 30.28 in 10.0 mi Calm Calm - N/A   Clear
5:15 PM 45.3 °F - 22.3 °F 40% 30.27 in 10.0 mi Calm Calm - N/A   Clear
5:35 PM 43.3 °F - 21.6 °F 42% 30.28 in 10.0 mi Calm Calm - N/A   Clear
5:55 PM 41.0 °F - 23.0 °F 49% 30.28 in 10.0 mi Calm Calm - N/A   Clear
6:15 PM 37.8 °F - 23.2 °F 56% 30.29 in 7.0 mi Calm Calm - N/A   Clear
6:35 PM 36.3 °F - 23.0 °F 59% 30.30 in 10.0 mi Calm Calm - N/A   Clear
6:55 PM 36.0 °F - 23.2 °F 60% 30.30 in 10.0 mi Calm Calm - N/A   Clear
7:15 PM 34.7 °F - 22.8 °F 62% 30.30 in 10.0 mi Calm Calm - N/A   Clear
7:35 PM 33.8 °F - 22.6 °F 64% 30.30 in 10.0 mi Calm Calm - N/A   Clear
7:55 PM 32.7 °F - 24.1 °F 71% 30.31 in 10.0 mi Calm Calm - N/A   Clear
8:15 PM 31.6 °F - 22.6 °F 69% 30.32 in 10.0 mi Calm Calm - N/A   Clear
8:35 PM 28.2 °F - 22.6 °F 80% 30.32 in 10.0 mi Calm Calm - N/A   Clear
8:55 PM 29.1 °F - 21.9 °F 74% 30.32 in 10.0 mi Calm Calm - N/A   Clear
9:15 PM 27.9 °F - 22.8 °F 81% 30.32 in 10.0 mi Calm Calm - N/A   Clear
9:35 PM 28.0 °F - 22.3 °F 79% 30.33 in 10.0 mi Calm Calm - N/A   Clear
9:55 PM 27.0 °F - 22.3 °F 83% 30.33 in 10.0 mi Calm Calm - N/A   Clear
10:15 PM 26.2 °F - 21.6 °F 82% 30.33 in 10.0 mi Calm Calm - N/A   Clear
10:35 PM 25.9 °F - 21.2 °F 82% 30.33 in 10.0 mi Calm Calm - N/A   Clear
10:55 PM 25.2 °F - 21.4 °F 86% 30.33 in 10.0 mi Calm Calm - N/A   Clear
11:15 PM 25.7 °F - 21.4 °F 84% 30.33 in 10.0 mi Calm Calm - N/A   Clear
11:35 PM 25.7 °F - 20.8 °F 82% 30.33 in 10.0 mi Calm Calm - N/A   Clear
11:55 PM 25.7 °F - 21.7 °F 85% 30.33 in 10.0 mi Calm Calm - N/A   Clear